Meteo pe oră la Bolshie Pischevicy

Astăzi, 19 Mai, Miercuri

Timp Temperatura Precipitaţii Vânt Presiune Umiditate
00:00 +15°C° 0 mm 1 m/s 744 mmHg 96%
01:00 +15°C° 0 mm 1 m/s 743 mmHg 96%
02:00 +15°C° 0 mm 1 m/s 743 mmHg 96%
03:00 +15°C° 0.2 mm 1 m/s 743 mmHg 97%
04:00 +15°C° 0.2 mm 1 m/s 742 mmHg 97%
05:00 +15°C° 0.2 mm 1 m/s 742 mmHg 97%
06:00 +15°C° 0.7 mm 2 m/s 742 mmHg 97%
07:00 +15°C° 0.7 mm 2 m/s 742 mmHg 97%
08:00 +14°C° 0.7 mm 3 m/s 742 mmHg 97%
09:00 +16°C° 0.3 mm 3 m/s 742 mmHg 96%
10:00 +16°C° 0.3 mm 3 m/s 743 mmHg 95%
11:00 +17°C° 0.3 mm 3 m/s 743 mmHg 94%
12:00 +17°C° 0.4 mm 3 m/s 743 mmHg 93%
13:00 +17°C° 0.4 mm 3 m/s 743 mmHg 91%
14:00 +17°C° 0.4 mm 4 m/s 744 mmHg 90%
15:00 +16°C° 0.2 mm 3 m/s 744 mmHg 89%
16:00 +16°C° 0.2 mm 3 m/s 744 mmHg 89%
17:00 +16°C° 0.2 mm 3 m/s 745 mmHg 89%
18:00 +14°C° 0 mm 3 m/s 745 mmHg 90%
19:00 +13°C° 0 mm 3 m/s 745 mmHg 91%
20:00 +13°C° 0 mm 2 m/s 746 mmHg 92%
21:00 +12°C° 0 mm 3 m/s 746 mmHg 92%
22:00 +11°C° 0 mm 3 m/s 746 mmHg 92%
23:00 +10°C° 0 mm 3 m/s 746 mmHg 92%

Mâine, 20 Mai, Joi

Timp Temperatura Precipitaţii Vânt Presiune Umiditate
00:00 +10°C° 0 mm 3 m/s 746 mmHg 92%
01:00 +10°C° 0 mm 2 m/s 747 mmHg 92%
02:00 +9°C° 0 mm 2 m/s 747 mmHg 92%
03:00 +9°C° 0 mm 2 m/s 747 mmHg 91%
04:00 +9°C° 0 mm 2 m/s 747 mmHg 91%
05:00 +9°C° 0 mm 2 m/s 747 mmHg 90%
06:00 +10°C° 0 mm 3 m/s 748 mmHg 86%
07:00 +10°C° 0 mm 3 m/s 748 mmHg 82%
08:00 +11°C° 0 mm 3 m/s 748 mmHg 78%
09:00 +12°C° 0 mm 4 m/s 748 mmHg 73%
10:00 +13°C° 0 mm 4 m/s 748 mmHg 68%
11:00 +14°C° 0 mm 5 m/s 747 mmHg 62%
12:00 +13°C° 0 mm 5 m/s 748 mmHg 66%
13:00 +13°C° 0 mm 4 m/s 748 mmHg 69%
14:00 +12°C° 0 mm 4 m/s 748 mmHg 72%
15:00 +13°C° 0.1 mm 4 m/s 748 mmHg 72%
16:00 +13°C° 0.1 mm 4 m/s 748 mmHg 71%
17:00 +13°C° 0.1 mm 3 m/s 748 mmHg 70%
18:00 +12°C° 0 mm 3 m/s 748 mmHg 74%
19:00 +12°C° 0 mm 2 m/s 749 mmHg 78%
20:00 +10°C° 0 mm 2 m/s 749 mmHg 82%
21:00 +10°C° 0 mm 2 m/s 749 mmHg 84%
22:00 +9°C° 0 mm 3 m/s 749 mmHg 85%
23:00 +9°C° 0 mm 3 m/s 750 mmHg 87%

Poimâine, 21 Mai, Vineri

Timp Temperatura Precipitaţii Vânt Presiune Umiditate
00:00 +8°C° 0 mm 3 m/s 750 mmHg 89%
01:00 +7°C° 0 mm 2 m/s 750 mmHg 90%
02:00 +5°C° 0 mm 2 m/s 751 mmHg 92%
03:00 +5°C° 0 mm 2 m/s 751 mmHg 90%
04:00 +6°C° 0 mm 2 m/s 751 mmHg 89%
05:00 +6°C° 0 mm 2 m/s 751 mmHg 88%
06:00 +8°C° 0 mm 2 m/s 752 mmHg 78%
07:00 +9°C° 0 mm 3 m/s 752 mmHg 69%
08:00 +11°C° 0 mm 4 m/s 752 mmHg 59%
09:00 +12°C° 0 mm 4 m/s 752 mmHg 56%
10:00 +13°C° 0 mm 4 m/s 752 mmHg 53%
11:00 +14°C° 0 mm 4 m/s 752 mmHg 49%
12:00 +14°C° 0.1 mm 4 m/s 752 mmHg 50%
13:00 +14°C° 0.1 mm 4 m/s 752 mmHg 50%
14:00 +14°C° 0.1 mm 4 m/s 753 mmHg 51%
15:00 +14°C° 0 mm 4 m/s 753 mmHg 50%
16:00 +14°C° 0 mm 4 m/s 753 mmHg 50%
17:00 +15°C° 0 mm 4 m/s 753 mmHg 50%
18:00 +13°C° 0 mm 4 m/s 753 mmHg 56%
19:00 +11°C° 0 mm 3 m/s 753 mmHg 63%
20:00 +10°C° 0 mm 2 m/s 754 mmHg 70%
21:00 +9°C° 0 mm 2 m/s 754 mmHg 75%
22:00 +8°C° 0 mm 2 m/s 754 mmHg 79%
23:00 +7°C° 0 mm 2 m/s 754 mmHg 84%

22 Mai, Sâmbătă

Timp Temperatura Precipitaţii Vânt Presiune Umiditate
00:00 +7°C° 0 mm 2 m/s 754 mmHg 85%
01:00 +6°C° 0 mm 2 m/s 754 mmHg 86%
02:00 +6°C° 0 mm 2 m/s 754 mmHg 86%
03:00 +7°C° 0 mm 2 m/s 754 mmHg 83%
04:00 +7°C° 0 mm 3 m/s 754 mmHg 80%
05:00 +8°C° 0 mm 3 m/s 754 mmHg 77%
06:00 +9°C° 0 mm 3 m/s 754 mmHg 73%
07:00 +10°C° 0 mm 4 m/s 754 mmHg 69%
08:00 +12°C° 0 mm 4 m/s 754 mmHg 65%
09:00 +14°C° 0 mm 5 m/s 753 mmHg 59%
10:00 +15°C° 0 mm 5 m/s 753 mmHg 52%
11:00 +17°C° 0 mm 6 m/s 753 mmHg 46%
12:00 +17°C° 0.1 mm 5 m/s 753 mmHg 51%
13:00 +17°C° 0.1 mm 4 m/s 752 mmHg 56%
14:00 +17°C° 0.1 mm 4 m/s 752 mmHg 61%
15:00 +17°C° 0 mm 3 m/s 752 mmHg 64%
16:00 +17°C° 0 mm 3 m/s 752 mmHg 66%
17:00 +16°C° 0 mm 3 m/s 752 mmHg 68%
18:00 +16°C° 0 mm 3 m/s 752 mmHg 70%
19:00 +16°C° 0 mm 3 m/s 752 mmHg 72%
20:00 +14°C° 0 mm 3 m/s 752 mmHg 74%
21:00 +13°C° 0 mm 3 m/s 752 mmHg 75%
22:00 +13°C° 0 mm 3 m/s 752 mmHg 77%
23:00 +12°C° 0 mm 3 m/s 751 mmHg 78%

23 Mai, Duminică

Timp Temperatura Precipitaţii Vânt Presiune Umiditate
00:00 +12°C° 0 mm 3 m/s 751 mmHg 80%
01:00 +11°C° 0 mm 3 m/s 751 mmHg 82%
02:00 +11°C° 0 mm 3 m/s 750 mmHg 83%
03:00 +11°C° 0 mm 4 m/s 750 mmHg 84%
04:00 +11°C° 0 mm 4 m/s 749 mmHg 86%
05:00 +11°C° 0 mm 4 m/s 749 mmHg 87%
06:00 +13°C° 0 mm 5 m/s 748 mmHg 82%
07:00 +14°C° 0 mm 5 m/s 747 mmHg 78%
08:00 +15°C° 0 mm 6 m/s 747 mmHg 74%
09:00 +15°C° 0.2 mm 5 m/s 746 mmHg 76%
10:00 +15°C° 0.2 mm 5 m/s 746 mmHg 78%
11:00 +16°C° 0.2 mm 5 m/s 745 mmHg 79%
12:00 +14°C° 1.4 mm 5 m/s 746 mmHg 84%
13:00 +13°C° 1.4 mm 4 m/s 746 mmHg 89%
14:00 +12°C° 1.4 mm 3 m/s 746 mmHg 95%
15:00 +12°C° 0.3 mm 3 m/s 746 mmHg 92%
16:00 +13°C° 0.3 mm 3 m/s 746 mmHg 89%
17:00 +13°C° 0.3 mm 3 m/s 746 mmHg 85%
18:00 +13°C° 0.1 mm 3 m/s 746 mmHg 86%
19:00 +12°C° 0.1 mm 3 m/s 747 mmHg 87%
20:00 +13°C° 0.1 mm 2 m/s 747 mmHg 88%
21:00 +12°C° 0 mm 2 m/s 747 mmHg 90%
22:00 +10°C° 0 mm 2 m/s 748 mmHg 92%
23:00 +9°C° 0 mm 2 m/s 749 mmHg 94%

24 Mai, Luni

Timp Temperatura Precipitaţii Vânt Presiune Umiditate
00:00 +8°C° 0 mm 2 m/s 749 mmHg 95%
01:00 +7°C° 0 mm 2 m/s 749 mmHg 95%
02:00 +6°C° 0 mm 2 m/s 750 mmHg 96%
03:00 +6°C° 0 mm 2 m/s 750 mmHg 94%
04:00 +6°C° 0 mm 2 m/s 750 mmHg 93%
05:00 +6°C° 0 mm 2 m/s 750 mmHg 92%
06:00 +8°C° 0 mm 3 m/s 751 mmHg 82%
07:00 +9°C° 0 mm 3 m/s 751 mmHg 73%
08:00 +11°C° 0 mm 4 m/s 751 mmHg 63%
09:00 +12°C° 0 mm 4 m/s 751 mmHg 62%
10:00 +12°C° 0 mm 4 m/s 751 mmHg 60%
11:00 +13°C° 0 mm 4 m/s 752 mmHg 58%
12:00 +13°C° 0 mm 4 m/s 752 mmHg 57%
13:00 +13°C° 0 mm 4 m/s 752 mmHg 55%
14:00 +13°C° 0 mm 4 m/s 752 mmHg 54%
15:00 +13°C° 0.1 mm 4 m/s 752 mmHg 55%
16:00 +13°C° 0.1 mm 4 m/s 752 mmHg 57%
17:00 +13°C° 0.1 mm 3 m/s 752 mmHg 58%
18:00 +12°C° 0.1 mm 3 m/s 752 mmHg 66%
19:00 +10°C° 0.1 mm 3 m/s 752 mmHg 74%
20:00 +9°C° 0.1 mm 2 m/s 752 mmHg 82%
21:00 +8°C° 0 mm 2 m/s 752 mmHg 85%
22:00 +7°C° 0 mm 2 m/s 752 mmHg 88%
23:00 +7°C° 0 mm 3 m/s 752 mmHg 90%
Arată mai mult

Formular de consimțământ

Meteoprog și furnizorii noștri de servicii pot stoca și accesa date personale, precum cookies, identificatori de dispozitiv sau alte tehnologii similare pe dispozitivul dumneavoastră și procesa astfel de date pentru a personaliza conținutul și reclamele, dar și pentru a oferi caracteristici de social media și pentru a analiza traficul.

  • Stocarea și/sau accesarea informațiilor pe dispozitivul dumneavoastră

    Cookies, identificatori de dispozitiv sau alte informații pot fi stocate sau accesate pe dispozitiv în scopurile indicate mai sus.

  • Reclame și conținut personalizat, evaluarea reclamelor și a conținutului, informații despre audiențe și dezvoltarea produselor

    Reclamele și conținutul pot fi personalizate pe baza unui profil. Pot fi adăugate date suplimentare pentru a personaliza mai bine reclamele și conținutul. Performanța reclamelor și conținutului poate fi măsurată. Pot fi obținute informații despre utilizatorii care au văzut reclamele și conținutul. Aceste date pot fi utilizate pentru a dezvolta sau îmbunătăți experiența utilizatorilor, sistemele și software-ul.

Dând clic pe ‘Sunt de acord’, permiteți utilizarea cookie-urilor menționate, a identificatorilor de dispozitiv, balizelor web sau altor tehnologii similare. Setările pot fi modificate din browser-ul dispozitivului dumneavoastră.

În anumite scopuri, interesele legitime pot prima asupra consimțământului. Puteți citi mai multe informații în acest sens în Politica privind Confidențialitatea Datelor și Cookie.